St. John's, Canada

8:42 AM NST on November 24, 2017 (GMT -0330)
St. John's International

Weather History for CYYT - November, 2012

Change the Weather History Date:

Sunday, November 25, 2012

  Actual Average Record
Temperature  
Mean Temperature 45 °F -  
Max Temperature 53 °F 36 °F 57 °F (2014)
Min Temperature 37 °F 24 °F 17 °F (2000)
Degree Days  
Heating Degree Days 20    
Moisture  
Dew Point 46 °F    
Average Humidity 94    
Maximum Humidity 100    
Minimum Humidity 67    
Precipitation  
Precipitation 0.39 in 0.19 in - ()
Sea Level Pressure  
Sea Level Pressure 29.21 in    
Wind  
Wind Speed 20 mph ()    
Max Wind Speed 31 mph    
Max Gust Speed 43 mph    
Visibility 11.2 miles    
Events Fog , Rain    
Averages and records for this station are not official NWS values.
T = Trace of Precipitation, MM = Missing Value Source: Averaged Metar Reports

Daily Weather History Graph

Daily Weather History Graph

Search for Another Location

Airport or City:

Trip Planner

Search our weather history database for the weather conditions in past years. The results will help you decide how hot, cold, wet, or windy it might be!

Date:

Astronomy

Nov. 25, 2012 Rise Set
Actual Time 7:20 AM NST 4:14 PM NST
Civil Twilight 6:46 AM NST 4:49 PM NST
Nautical Twilight 6:08 AM NST 5:27 PM NST
Astronomical Twilight 5:31 AM NST 6:04 PM NST
Moon 2:35 PM NST (11/25) 4:20 AM NST (11/25)
Length of Visible Light 10h 03m
Length of Day
8h 53m
Waxing Gibbous, 92% of the Moon is Illuminated
Nov 25
Waxing Gibbous
Nov 28
Full
Dec 6
Last Quarter
Dec 13
New
Dec 20
First Quarter

Hourly Weather History & Observations

Time (NST) Temp. Windchill Dew Point Humidity Pressure Visibility Wind Dir Wind Speed Gust Speed Precip Events Conditions
12:30 AM 48.2 °F - 48.2 °F 100% 29.26 in 0.2 mi SE 25.3 mph 33.4 mph N/A Fog , Rain Light Rain
1:04 AM 48.2 °F - 48.2 °F 100% 29.22 in 0.5 mi SE 23.0 mph 28.8 mph N/A Fog , Rain Light Rain
1:30 AM 48.2 °F - 48.2 °F 100% 29.18 in 0.5 mi SE 26.5 mph 38.0 mph N/A Fog , Rain Light Rain
2:30 AM 48 °F - 48 °F 100% 29.15 in 0 mi SSE 25.3 mph - - Rain Light Rain
2:30 AM 48.2 °F - 48.2 °F 100% 29.15 in 0.5 mi SSE 24.2 mph 32.2 mph N/A Fog , Rain Light Rain
2:40 AM 48.2 °F - 48.2 °F 100% 29.14 in 1.2 mi SSE 26.5 mph 34.5 mph N/A Rain Light Rain
3:09 AM 48.2 °F - 48.2 °F 100% 29.13 in 2.0 mi SSE 23.0 mph 33.4 mph N/A Rain Light Rain
3:30 AM 48.2 °F - 48.2 °F 100% 29.12 in 4.0 mi SSE 19.6 mph - N/A Rain Light Rain
3:57 AM 50.0 °F - 50.0 °F 100% 29.11 in 12.0 mi SSE 20.7 mph 28.8 mph N/A Rain Light Rain
4:30 AM 50.0 °F - 50.0 °F 100% 29.11 in 12.0 mi South 20.7 mph 26.5 mph N/A Rain Light Rain
4:53 AM 50.0 °F - 50.0 °F 100% 29.10 in 12.0 mi South 17.3 mph 26.5 mph N/A Rain Light Rain
5:18 AM 50.0 °F - 50.0 °F 100% 29.09 in 15.0 mi South 17.3 mph 24.2 mph N/A Rain Light Rain
5:30 AM 50.0 °F - 50.0 °F 100% 29.10 in 15.0 mi South 15.0 mph - N/A Rain Light Rain
5:53 AM 51.8 °F - 51.8 °F 100% 29.09 in 12.0 mi South 16.1 mph 27.6 mph N/A Rain Light Rain
6:13 AM 51.8 °F - 51.8 °F 100% 29.08 in 12.0 mi SSW 19.6 mph 28.8 mph N/A Rain Rain
6:30 AM 51.8 °F - 51.8 °F 100% 29.09 in 12.0 mi South 16.1 mph 24.2 mph N/A Rain Light Rain
7:30 AM 51.8 °F - 51.8 °F 100% 29.09 in 15.0 mi SSW 15.0 mph 24.2 mph N/A   Overcast
7:41 AM 51.8 °F - 51.8 °F 100% 29.10 in 15.0 mi SW 15.0 mph 23.0 mph N/A   Overcast
8:17 AM 53.6 °F - 53.6 °F 100% 29.11 in 15.0 mi SW 19.6 mph 27.6 mph N/A   Overcast
8:30 AM 53 °F - 53 °F 99% 29.12 in 15 mi WSW 19.6 mph - -   Partly Cloudy
8:30 AM 53.6 °F - 53.6 °F 100% 29.12 in 15.0 mi WSW 17.3 mph 26.5 mph N/A   Overcast
9:30 AM 50.0 °F - 50.0 °F 100% 29.13 in 10.0 mi West 21.9 mph 31.1 mph N/A   Overcast
10:13 AM 50.0 °F - 48.2 °F 94% 29.14 in 10.0 mi WSW 21.9 mph - N/A   Mostly Cloudy
10:30 AM 50.0 °F - 48.2 °F 94% 29.16 in 12.0 mi WSW 19.6 mph 28.8 mph N/A   Scattered Clouds
10:59 AM 48.2 °F - 48.2 °F 100% 29.15 in 12.0 mi West 25.3 mph 32.2 mph N/A   Mostly Cloudy
11:30 AM 48.2 °F - 46.4 °F 93% 29.16 in 12.0 mi West 24.2 mph 32.2 mph N/A   Overcast
12:30 PM 48.2 °F - 46.4 °F 93% 29.21 in 12.0 mi WSW 31.1 mph 42.6 mph N/A   Overcast
1:30 PM 48.2 °F - 46.4 °F 93% 29.25 in 15.0 mi WSW 24.2 mph 35.7 mph N/A   Mostly Cloudy
2:30 PM 48 °F - 40 °F 67% 29.24 in 15 mi SW 19.6 mph - -   Overcast
2:30 PM 48.2 °F - 41.0 °F 76% 29.24 in 15.0 mi SW 18.4 mph 29.9 mph N/A   Overcast
3:30 PM 46.4 °F 39.0 °F 41.0 °F 81% 29.27 in 15.0 mi SW 19.6 mph 29.9 mph N/A   Scattered Clouds
4:30 PM 42.8 °F 34.3 °F 39.2 °F 87% 29.29 in 15.0 mi SW 19.6 mph 28.8 mph N/A   Scattered Clouds
5:30 PM 42.8 °F 34.0 °F 39.2 °F 87% 29.33 in 15.0 mi SW 20.7 mph 31.1 mph N/A   Scattered Clouds
6:30 PM 42.8 °F 34.0 °F 39.2 °F 87% 29.37 in 15.0 mi SW 20.7 mph 26.5 mph N/A   Partly Cloudy
7:30 PM 41.0 °F 31.6 °F 35.6 °F 81% 29.38 in 15.0 mi SW 20.7 mph 27.6 mph N/A   Partly Cloudy
8:30 PM 41 °F - 36 °F 77% 29.40 in 15 mi SSW 20.7 mph - -   Partly Cloudy
8:30 PM 41.0 °F 31.1 °F 35.6 °F 81% 29.40 in 15.0 mi SSW 23.0 mph 29.9 mph N/A   Scattered Clouds
9:30 PM 39.2 °F 31.2 °F 35.6 °F 87% 29.42 in 15.0 mi SSW 13.8 mph 21.9 mph N/A   Mostly Cloudy
10:30 PM 39.2 °F 29.3 °F 35.6 °F 87% 29.45 in 12.0 mi SW 20.7 mph 29.9 mph N/A Rain Light Rain Showers
10:52 PM 37.4 °F 26.4 °F 35.6 °F 93% 29.46 in 15.0 mi SW 23.0 mph 34.5 mph N/A   Partly Cloudy
11:30 PM 37.4 °F 25.4 °F 33.8 °F 87% 29.47 in 15.0 mi SSW 27.6 mph 36.8 mph N/A   Scattered Clouds